Probability
0 0 0 0 0 0 0 0 0 0 0 0 0 0 0 0 0 0 0 0 0 0 0 0 0 0 0 0 0 0 0 0 0 0 0 0 0 0 0 0 0 0 0
0 0 0 0 0 0 0 0 0 0 0 0 0 0 0 0 0 0 0 0 0 0 0 0 0 0 0 0 0 0 0 0 0 0 0 0 0 0 0 0 0 0 0
0 0 0 0 0 0 0 0 0 0 0 0 0 0 0 0 0 0 0 0 0 0 0 0 0 0 0 0 0 0 0 0 0 0 0 0 0 0 0 0 0 0 0
0 0 0 0 0 0 0 0 0 0 0 0 0 0 0 0 0 0 0 0 0 0 0 0 0 0 0 0 0 0 0 0 0 0 0 0 0 0 0 0 0 0 0
0 0 0 0 0 0 0 0 0 0 0 0 0 0 0 0 0 0 0 0 0 0 0 0 0 0 0 0 0 0 0 0 0 0 0 0 0 0 0 0 0 0 0
0 0 0 0 0 0 0 0 0 0 0 0 0 0 0 0 0 0 0 0 0 0 0 0 0 0 0 0 0 0 0 0 0 0 0 0 0 0 0 0 0 0 0
0 0 0 0 0 0 0 0 0 0 0 0 0 0 0 0 0 0 0 0 0 0 0 0 0 0 0 0 0 0 0 0 0 0 0 0 0 0 0 0 0 0 0
0 0 0 0 0 0 0 0 0 0 0 0 0 0 0 0 0 0 0 0 0 0 0 0 0 0 0 0 0 0 0 0 0 0 0 0 0 0 0 0 0 0 0
0 0 0 0 0 0 0 0 0 0 0 0 0 0 0 0 0 0 0 0 0 0 0 0 0 0 0 0 0 0 0 0 0 0 0 0 0 0 0 0 0 0 0
0 0 0 0 0 0 0 0 0 0 0 0 0 0 0 0 0 0 0 0 0 0 0 0 0 0 0 0 0 0 0 0 0 0 0 0 0 0 0 0 0 0 0
0 0 0 0 0 0 0 0 0 0 0 0 0 0 0 0 0 0 0 0 0 0 0 0 0 0 0 0 0 0 0 0 0 0 0 0 0 0 0 0 0 0 0
0 0 0 0 0 0 0 0 0 0 0 0 0 0 0 0 0 0 0 0 0 0 0 0 0 0 0 0 0 0 0 0 0 0 0 0 0 0 0 0 0 0 0
0 0 0 0 0 0 0 0 0 0 0 0 0 0 0 0 0 0 0 0 0 0 0 0 0 0 0 0 0 0 0 0 0 0 0 0 0 0 0 0 0 0 0
0 0 0 0 0 0 0 0 0 0 0 0 0 0 0 0 0 0 0 0 0 0 0 0 0 0 0 0 0 0 0 0 0 0 0 0 0 0 0 0 0 0 0
0 0 0 0 0 0 0 0 0 0 0 0 0 0 0 0 0 0 0 0 0 0 0 0 0 0 0 0 0 0 0 0 0 0 0 0 0 0 0 0 0 0 0
0 0 0 0 0 0 0 0 0 0 0 0 0 0 0 0 0 0 0 0 0 0 0 0 0 0 0 0 0 0 0 0 0 0 0 0 0 0 0 0 0 0 0
0 0 0 0 0 0 0 0 0 0 0 0 0 0 0 0 0 0 0 0 0 0 0 0 0 0 0 0 0 0 0 0 0 0 0 0 0 0 0 0 0 0 0
0 0 0 0 0 0 0 0 0 0 0 0 0 0 0 0 0 0 0 0 0 0 0 0 0 0 0 0 0 0 0 0 0 0 0 0 0 0 0 0 0 0 0
0 0 0 0 0 0 0 0 0 0 0 0 0 0 0 0 0 0 0 0 0 0 0 0 0 0 0 0 0 0 0 0 0 0 0 0 0 0 0 0 0 0 0
0 0 0 0 0 0 0 0 0 0 0 0 0 0 0 0 0 0 0 0 0 0 0 0 0 0 0 0 0 0 0 0 0 0 0 0 0 0 0 0 0 0 0
0 0 0 0 0 0 0 0 0 0 0 0 0 0 0 0 0 0 0 0 0 0 0 0 0 0 0 0 0 0 0 0 0 0 0 0 0 0 0 0 0 0 0
0 0 0 0 0 0 0 0 0 0 0 0 0 0 0 0 0 0 0 0 0 0 0 0 0 0 0 0 0 0 0 0 0 0 0 0 0 0 0 0 0 0 0
0 0 0 0 0 0 0 0 0 0 0 0 0 0 0 0 0 0 0 0 0 0 0 0 0 0 0 0 0 0 0 0 0 0 0 0 0 0 0 0 0 0 0
0 0 0 0 0 0 0 0 0 0 0 0 0 0 0 0 0 0 0 0 0 0 0 0 0 0 0 0 0 0 0 0 0 0 0 0 0 0 0 0 0 0 0
0 0 0 0 0 0 0 0 0 0 0 0 0 0 0 0 0 0 0 0 0 0 0 0 0 0 0 0 0 0 0 0 0 0 0 0 0 0 0 0 0 0 0
0 0 0 0 0 0 0 0 0 0 0 0 0 0 0 0 0 0 0 0 0 0 0 0 0 0 0 0 0 0 0 0 0 0 0 0 0 0 0 0 0 0 0
Wind_Speed
10 6 7 8 9 9 11 12 13 13 11 9 10 10 10 8 7 8 9 11 11 12 11 8 8 9 9 9 9 5 5 3 3 3 1 2 3 4 5 4 4 5 5
8 7 6 6 8 10 12 12 14 12 13 12 9 6 6 5 6 6 8 11 12 13 11 12 10 10 9 9 10 7 5 4 6 5 3 3 4 8 9 6 7 8 5
10 7 5 6 6 8 11 11 13 13 12 11 5 3 3 2 4 7 8 9 11 12 12 13 11 11 11 11 13 13 12 9 9 6 6 5 8 3 3 8 9 9 8
5 5 4 4 4 6 6 8 8 9 9 9 8 10 10 10 10 7 6 7 9 10 12 12 13 12 11 11 12 14 11 9 9 7 6 5 2 4 3 3 6 9 11
3 3 2 2 2 2 1 3 4 5 6 8 9 10 10 9 4 3 5 6 7 9 10 11 11 12 11 12 12 13 13 11 11 9 6 6 3 3 4 6 4 5 10
4 4 4 5 5 5 4 2 1 1 3 5 7 9 10 8 5 5 5 5 4 6 8 9 10 10 10 11 12 13 15 13 12 10 8 7 6 8 9 12 8 7 6
4 6 7 8 8 8 7 5 4 2 1 2 3 5 6 6 7 6 6 5 4 5 7 7 9 9 10 10 10 12 13 14 14 14 12 11 10 5 6 9 7 6 4
5 6 6 6 6 7 7 6 5 4 3 2 0 1 2 2 3 4 4 5 5 6 6 7 8 8 8 9 9 10 11 11 14 16 14 11 11 9 8 6 5 5 6
5 5 6 6 7 7 7 6 6 6 5 3 2 2 1 2 3 3 3 4 4 4 5 6 7 8 8 8 8 9 10 10 12 13 14 13 11 9 9 8 8 9 10
5 6 6 6 6 6 6 6 6 5 5 4 3 2 2 2 3 3 4 4 4 4 5 6 7 8 8 8 9 9 9 11 11 10 13 14 11 10 9 9 10 11 12
4 5 5 6 6 6 6 7 7 7 7 6 4 4 3 3 3 3 4 4 4 4 5 6 7 8 8 8 9 11 10 11 12 11 12 14 12 11 10 10 10 11 11
4 4 5 6 7 8 7 7 7 7 7 5 4 4 4 4 3 4 4 4 5 5 5 6 6 7 8 8 10 11 11 12 13 12 12 14 10 13 11 10 12 11 12
5 5 6 7 7 7 7 7 7 7 7 6 6 6 6 6 6 5 5 5 5 5 5 5 6 7 8 8 9 11 11 12 12 12 12 12 10 12 10 11 11 10 10
4 5 5 6 6 6 6 6 7 7 7 7 7 7 7 7 7 7 6 6 5 6 6 6 6 7 7 8 8 9 10 11 11 10 11 10 10 11 10 10 11 10 10
4 4 4 4 4 5 5 5 5 6 6 6 6 6 6 7 7 7 7 7 6 6 6 6 7 6 6 6 8 8 10 11 11 10 9 10 11 12 11 9 9 9 10
3 3 3 3 4 4 5 5 6 6 5 5 5 5 6 6 6 7 7 7 7 7 6 6 7 7 6 10 12 11 9 9 10 10 9 9 9 12 15 16 15 13 11
3 2 2 2 2 3 4 5 6 5 5 5 5 5 6 7 7 7 7 7 7 7 7 7 6 8 9 13 13 12 9 9 9 9 8 7 6 8 9 12 15 15 17
3 2 1 2 2 3 4 4 4 5 5 5 6 6 7 8 8 7 7 7 6 6 7 7 7 8 9 13 13 12 9 9 9 8 8 8 8 6 8 8 9 10 10
2 1 0 1 2 3 4 5 5 5 6 6 7 7 8 9 9 9 9 8 7 7 7 7 7 8 9 11 13 12 6 7 8 7 7 7 8 10 12 9 9 9 7
2 1 1 1 3 3 4 5 6 6 7 7 8 8 8 8 9 9 9 7 7 8 7 7 7 7 8 11 13 12 5 7 7 5 5 7 9 11 11 8 7 9 6
1 1 1 2 3 3 4 5 6 6 6 7 8 8 7 8 8 8 7 7 7 7 7 8 7 6 7 10 13 12 5 5 6 5 4 4 9 11 10 9 6 7 5
1 1 2 3 3 3 4 5 6 6 6 7 8 8 8 7 7 8 8 6 6 7 8 7 8 5 5 6 9 12 10 8 6 6 4 4 8 9 8 6 5 6 3
1 2 2 4 4 3 3 5 6 7 7 8 8 8 8 7 7 7 8 7 5 5 6 6 7 6 4 5 10 10 10 10 6 4 6 6 7 5 3 4 3 0 1
2 2 3 4 5 4 4 4 6 6 6 8 9 8 8 8 7 6 6 6 6 5 6 6 6 6 5 4 4 4 4 5 4 3 3 4 4 2 2 2 1 1 2
2 3 3 5 6 6 5 5 6 6 7 8 8 8 7 7 7 6 6 7 6 6 7 5 5 6 6 6 9 6 3 2 2 2 1 2 2 2 2 3 3 3 3
3 4 5 6 7 7 7 6 5 5 6 8 8 6 6 6 6 7 7 8 8 9 9 8 7 6 7 9 9 8 6 4 2 2 2 2 2 2 2 3 3 3 3
Wind_Direction
260 254 233 219 212 210 208 208 207 206 198 202 207 211 216 212 209 207 202 201 202 200 201 201 193 189 194 196 189 169 166 157 143 130 224 266 245 243 237 231 234 237 236
283 270 250 224 213 213 213 213 212 206 203 207 207 207 206 207 210 206 207 204 204 202 203 204 200 196 198 195 188 174 173 172 176 171 163 250 269 241 229 219 227 231 226
269 277 267 240 224 221 216 215 214 210 207 203 185 173 174 184 201 212 215 211 207 205 205 206 205 201 200 201 198 194 187 194 197 192 175 188 230 234 241 227 226 224 225
275 279 277 267 244 241 229 220 215 209 204 192 192 198 209 219 221 217 214 207 207 210 210 209 208 206 206 207 203 201 202 193 199 210 225 220 189 193 255 251 235 228 229
320 328 342 338 338 321 263 221 208 205 196 192 199 205 219 227 222 204 210 212 211 214 214 213 212 212 211 211 206 202 204 207 207 199 198 213 224 225 233 260 243 234 235
14 25 30 37 31 27 33 44 114 179 183 189 197 207 219 222 217 213 216 219 220 223 223 221 220 218 216 214 212 208 209 213 217 213 201 188 192 204 215 240 239 235 237
25 32 32 32 30 30 33 40 59 56 66 167 199 214 223 222 225 223 220 222 224 228 229 226 229 228 224 219 214 213 214 215 217 220 220 220 223 205 208 234 248 244 235
38 42 38 40 36 34 35 40 47 45 42 53 329 262 242 232 239 235 228 227 230 232 232 231 236 237 233 226 219 220 219 218 221 227 228 229 229 222 214 216 225 254 247
49 46 41 43 41 37 32 34 43 41 33 28 22 1 317 269 263 261 249 247 245 243 237 236 239 241 239 236 230 233 227 222 224 228 229 233 234 229 226 220 216 237 263
53 46 42 41 40 38 33 35 42 42 30 25 18 359 335 310 293 285 272 265 260 250 245 243 242 244 243 241 240 244 238 233 232 228 230 233 234 233 227 225 225 226 245
67 51 42 36 39 40 37 35 32 32 25 17 11 6 351 336 323 301 287 279 271 259 250 245 244 245 245 242 243 246 243 243 243 235 234 237 232 234 231 228 227 228 231
71 56 48 42 39 36 32 29 27 26 14 5 9 11 2 353 342 321 306 293 281 269 258 254 250 249 248 244 244 249 247 248 249 246 243 243 236 235 234 231 232 232 228
74 59 50 44 37 31 28 24 21 15 5 5 10 11 6 359 347 333 322 311 297 288 276 263 258 255 252 250 248 252 254 252 253 251 249 248 240 241 238 235 237 236 234
82 69 55 43 35 30 25 18 14 9 4 6 10 7 357 348 338 333 330 324 314 304 295 279 268 263 260 254 253 253 257 258 257 254 251 250 243 244 242 241 242 241 241
86 72 59 41 31 25 17 12 7 5 1 2 5 355 342 338 335 333 329 324 317 307 299 292 285 276 268 260 257 256 258 260 261 258 252 251 249 248 247 247 246 240 244
98 75 59 44 27 14 4 0 358 354 352 356 351 337 335 334 331 326 321 318 315 311 307 297 292 289 280 279 271 264 262 260 260 261 256 252 249 251 252 253 252 246 245
124 100 71 38 16 6 357 351 338 335 346 349 344 342 338 333 328 321 319 317 313 310 305 300 297 292 291 292 285 272 265 263 261 260 261 258 249 247 253 258 260 257 252
132 105 49 6 356 349 347 333 329 338 343 345 344 344 340 332 328 326 322 317 312 307 303 301 296 293 293 297 294 286 270 265 262 258 258 262 263 250 251 255 258 257 255
131 127 70 330 335 344 342 335 338 341 345 346 342 339 334 328 326 323 319 316 313 310 304 300 296 294 296 298 297 293 279 273 270 263 255 256 262 263 258 256 260 264 264
110 96 23 355 346 344 348 344 338 340 340 337 330 326 323 318 314 311 309 308 305 301 303 300 297 293 294 300 300 295 278 278 279 272 259 253 259 267 263 252 254 262 264
112 57 9 340 330 339 348 335 328 326 327 326 319 315 312 307 301 300 299 302 301 300 299 298 298 292 289 297 301 297 283 273 280 280 277 266 273 273 270 262 255 260 263
40 15 343 326 333 352 347 324 317 323 327 320 313 309 306 303 301 298 298 295 294 297 298 300 301 295 290 293 299 300 291 287 279 280 279 274 280 281 279 276 267 265 252
360 3 338 320 330 350 343 312 314 326 324 316 308 304 302 298 294 292 294 296 292 289 294 296 299 303 302 301 306 305 302 300 292 284 286 287 288 288 292 294 291 251 134
0 352 338 320 317 333 327 305 314 322 315 307 304 302 302 302 299 291 286 286 287 286 287 290 294 299 301 299 298 297 301 304 305 306 311 315 323 341 8 6 25 76 105
3 357 334 314 314 326 320 318 321 322 313 304 300 300 295 293 298 293 282 281 270 260 276 282 282 290 297 300 307 309 302 290 285 317 351 9 10 17 29 42 48 53 65
353 340 330 319 317 319 314 316 319 318 310 307 305 302 299 295 292 296 300 294 289 291 291 291 292 287 290 303 313 320 325 330 358 44 38 29 30 32 35 43 47 47 52